User: anonymous   Login
Location: Grand Rapids
(42.9630°N, 85.6680°W)
Time: 03:40:28
(UTC-04:00)
Language:

Transit 2A Rocket - Orbit

View from above orbital plane
View from above orbital plane
View from above satellite
View from above satellite

Ground track
Ground track

The orbit data is extracted from the following two-line orbital elements,

1 00047U 60007C   24150.69162379  .00000348  00000-0  99278-4 0  9993
2 00047  66.6656 256.0331 0228035 325.8831  32.7789 14.43566123342693
Epoch (UTC): 29 May 2024 16:35:56
Eccentricity: 0.0228035
inclination: 66.6656°
perigee height: 584 km
apogee height: 909 km
right ascension of ascending node: 256.0331°
argument of perigee: 325.8831°
revolutions per day: 14.43566123
mean anomaly at epoch: 32.7789°
orbit number at epoch: 34269

The dashed part of the orbit path shows where the satellite is in the earth's shadow,  

DLR